Regional Weather Roundup
Issued by NWS

Home | Current Version | Previous Version | Text Only | Print | Product List | Glossary On
Versions: 1 2 3 4 5 6 7 8 9 10 11 12 13 14 15 16 17 18 19 20 21 22 23 24 25 26 27 28 29 30 31 32 33 34 35 36 37 38 39 40 41 42 43 44 45 46 47 48 49 50
000
ASUS44 KMEG 041710
RWRTN
TENNESSEE HOURLY STATE WEATHER ROUNDUP
NATIONAL WEATHER SERVICE MEMPHIS TN
1200 PM CDT FRI SEP 04 2015

TNZ002-004-019-021-049-052-054-088>092-041800-
WEST TENNESSEE

CITY           SKY/WX    TMP DP  RH WIND       PRES   REMARKS
MEMPHIS INTL   MOSUNNY   91  70  49 CALM      30.03S HX  96
NWS MEMPHIS      N/A     89 N/A N/A MISG        N/A
JACKSON        SUNNY     90  72  55 CALM      30.04S HX  97
DYERSBURG      SUNNY     90  72  55 N7        30.03F HX  96
UNION CITY     SUNNY     90  70  51 VRB3      30.03S HX  95
PARIS          SUNNY     88  70  55 CALM      30.05F HX  92
LEXINGTON      SUNNY     90  70  51 CALM      30.03F HX  95
$$

TNZ008-025-027-028-033-062-065-066-041800-
NORTH MIDDLE TENNESSEE

CITY           SKY/WX    TMP DP  RH WIND       PRES   REMARKS
NASHVILLE      MOSUNNY   91  63  39 VRB6      30.05F HX  92
CLARKSVILLE    SUNNY     90  65  43 E6        30.04F HX  92
SMYRNA         MOSUNNY   98  68  37 S5        30.05F HX 103
COOKEVILLE     MOSUNNY   90  70  51 VRB3      30.06F HX  95
CROSSVILLE     MOSUNNY   85  63  47 NE7       30.12F
$$

TNZ061-075-076-078-094-096-097-041800-
SOUTH MIDDLE TENNESSEE

CITY           SKY/WX    TMP DP  RH WIND       PRES   REMARKS
FAYETTEVILLE   SUNNY     86  66  51 E5        30.06S
TULLAHOMA      MOSUNNY   86  64  48 N5        30.07F
WINCHESTER     MOSUNNY   88  68  51 E7        30.05F HX  91
MCMINNVILLE    SUNNY     88  72  58 N8        30.07S HX  94
COLUMBIA       MOSUNNY   90  68  48 NE5       30.04R HX  93
SHELBYVILLE    MOSUNNY   91  70  49 SE5       30.06S HX  97
$$

TNZ017-018-042-046-047-041800-
NORTHEAST TENNESSEE

CITY           SKY/WX    TMP DP  RH WIND       PRES   REMARKS
TRI CITIES     MOSUNNY   84  66  54 CALM      30.10F
ELIZABETHTON   SUNNY     84  64  51 CALM      30.09F
$$

TNZ012-013-036-069-073-074-041800-
CENTRAL EAST TENNESSEE

CITY           SKY/WX    TMP DP  RH WIND       PRES   REMARKS
KNOXVILLE      MOSUNNY   87  66  49 NE7       30.05F
OAK RIDGE      SUNNY     88  66  48 E8        30.07F HX  90
GATLINBURG       N/A     88  64  45 VRB3      30.05F
MORRISTOWN     SUNNY     86  66  51 NE9       30.09F
$$

TNZ083-085-099-041800-
SOUTHEAST TENNESSEE

CITY           SKY/WX    TMP DP  RH WIND       PRES   REMARKS
CHATTANOOGA    MOSUNNY   88  70  55 NE8       30.04F HX  93
$$

SKY/WX REPORTED AS FAIR MEANS FEW OR NO CLOUDS BELOW
12 THOUSAND FEET.




USA.gov is the U.S. government's official web portal to all federal, state and local government web resources and services.